Weather in Vladimirovo

Russia / Kaliningrad Oblast     54°33′30″N   20°31′54″E
temp.,
°C
wind,
m/s
gust,
m/s
humid.,
%
clouds,
%
prec.,
mm/h
press.,
hPa
HPBL,
m
22 september, wed
wed2223:00+8nw247989 0.1 102262
02:00+7nne12836 0.1 102223
05:00+7se117999 0.0 102226
08:00+8nnw14776 0.0 1023151
11:00+13n5748100 0.0 10231685
14:00+14n6749100 0.0 10221799
17:00+13nnw4664100 0.1 10221200
20:00+9nw2286100 0.1 102114
23 september, thu
thu2323:00+9wsw2284100 0.0 102037
02:00+9sw3882100 0.0 1018216
05:00+9sw498647 0.2 1015269
08:00+10sw51188100 0.2 1012294
11:00+14wsw6877100 0.0 1010757
14:00+15wsw71169100 0.1 10071194
17:00+14sw71483100 0.4 1002910
20:00+13sw91789100 3.3 9981339
24 september, fri
fri2423:00+12w121985100 3.6 9951467
02:00+10wnw111877100 4.5 9951674
05:00+11wnw111771100 0.3 9961523
08:00+12wnw10176642 0.3 9991720
11:00+14wnw10176058 0.1 10011780
14:00+15wnw101660100 0.2 10031751
17:00+13wnw91273100 0.4 10051323
20:00+13wnw81267100 0.4 10071422
25 september, sat
sat2523:00+13w71289100 0.6 1007944
02:00+13w81491100 2.8 10051011
05:00+13wsw81486100 0.1 1006987
08:00+14w81386100 0.3 10071007
11:00+15w8138155 0.4 10091240
14:00+16wnw914733 0.6 10101353
17:00+15wnw8137899 0.1 10131229
20:00+14wnw6117916 0.2 1015883
26 september, sun
sun2623:00+13wnw410842 0.0 1016334
02:00+12w37900 0.0 1018148
05:00+11w22945 0.0 102025
08:00+12wsw11885 0.0 102156
11:00+17ese11615 0.0 1022862
14:00+19ese22525 0.0 10231214
17:00+17ese345956 0.0 1023295
20:00+12ese387773 0.0 1023148